Theta_e
319 318 320 320 319 319 319 318 319 320 320 319 319 319 319 316 315 316 316 317 319 319 320 321 322 323 323 323 324 324 324 326 327 326 326 327 328 327 327 327 328 327 326 327 328 328 330 331 329 327 326 325 326 325 324 324 323 322 319 317 318 319 319
319 319 320 319 318 318 319 319 320 320 319 318 318 317 317 316 313 313 314 315 318 319 320 321 321 321 321 320 320 320 320 322 325 325 324 323 323 324 325 326 326 326 326 327 327 326 327 329 330 330 326 323 323 321 320 321 322 321 319 318 318 318 317
319 319 319 319 319 320 321 320 319 318 316 315 315 314 314 314 312 312 312 313 313 314 315 318 320 320 319 318 318 318 317 318 319 320 317 315 315 317 321 323 322 321 322 321 320 321 323 324 327 326 319 317 319 317 317 319 319 319 318 318 318 318 316
318 318 319 319 320 321 320 319 317 316 314 314 314 314 313 312 312 312 313 312 312 311 312 314 315 316 316 315 315 315 314 314 314 314 312 311 312 313 314 315 314 313 313 313 312 313 315 317 320 320 315 313 316 315 315 316 316 316 316 317 318 317 315
318 318 318 320 320 320 318 317 316 314 313 314 314 314 313 311 311 312 312 312 311 312 313 314 313 313 313 313 312 310 308 308 310 311 310 309 309 310 310 310 310 309 309 309 310 311 311 312 314 315 313 313 314 314 313 314 315 315 315 315 316 316 317
318 317 318 320 320 319 318 317 316 315 313 314 314 313 312 312 312 311 312 313 312 312 312 312 312 312 311 310 308 305 301 301 304 306 306 307 307 309 309 309 308 307 308 309 310 310 311 311 311 311 311 312 313 313 313 313 314 315 315 315 316 317 319
318 317 317 319 320 318 318 317 316 316 314 313 314 313 312 313 313 312 312 312 312 312 311 310 310 310 309 308 307 305 302 300 300 300 301 302 304 307 307 307 306 306 307 309 309 309 310 310 310 311 311 312 312 312 312 313 314 314 315 315 315 316 316
318 317 317 318 319 318 318 317 317 316 315 314 314 313 313 314 314 313 311 309 309 311 312 312 311 310 309 308 309 308 304 301 300 299 299 299 302 306 307 306 304 302 304 307 308 308 309 310 310 311 311 314 315 315 312 312 313 313 314 314 314 314 314
318 317 318 318 318 318 318 318 317 317 316 315 314 313 314 315 315 314 310 308 308 308 311 312 311 311 310 309 308 307 306 306 304 302 301 300 303 307 308 307 305 302 302 304 305 304 305 309 310 310 310 312 315 317 316 318 316 312 312 313 313 314 313
318 317 318 318 317 318 318 317 317 317 316 316 315 314 315 316 315 313 311 309 308 306 308 311 310 311 309 308 308 309 311 312 310 307 306 303 303 306 307 308 308 306 303 303 305 303 304 307 309 309 309 309 311 314 316 320 319 314 310 311 312 313 312
318 318 318 318 318 317 318 318 317 317 316 316 316 314 315 316 315 314 312 311 308 307 310 311 310 310 310 309 309 311 312 312 311 310 310 307 304 303 305 308 309 308 304 304 307 306 305 306 307 307 307 308 309 311 312 315 317 314 309 309 310 310 310
318 318 318 317 317 317 317 318 318 318 317 317 317 315 315 316 316 315 314 312 310 309 311 312 311 310 311 311 310 311 311 309 309 310 310 309 306 304 304 306 308 308 305 304 306 308 307 307 307 307 306 307 308 308 309 311 313 312 309 308 309 308 307
317 318 318 317 317 318 316 317 318 318 318 318 317 316 316 316 316 315 315 315 313 312 312 312 311 310 311 311 310 311 310 309 310 310 309 308 307 306 306 306 308 307 304 304 306 308 308 307 307 307 307 308 308 308 308 308 310 310 308 308 308 307 307
318 319 319 317 318 318 316 316 317 318 318 318 318 318 317 316 316 315 315 316 316 314 313 312 312 310 311 312 311 311 310 310 312 311 309 308 307 307 308 308 309 308 305 304 305 306 307 306 306 307 308 308 308 309 309 308 308 308 307 306 307 307 307
321 321 320 317 317 319 318 317 318 318 319 319 319 319 318 317 317 316 316 316 316 316 314 313 313 311 311 312 311 311 311 310 311 311 309 309 309 308 307 308 308 308 307 305 303 304 305 306 306 307 307 307 307 307 307 307 307 307 307 307 307 307 307
320 321 321 319 318 319 319 318 320 321 320 320 319 319 318 318 318 317 316 317 317 318 317 315 314 312 311 312 312 311 311 311 310 310 310 310 309 308 307 307 307 307 308 307 304 305 306 306 306 307 306 306 306 305 305 306 306 307 307 307 306 306 305
320 319 319 320 319 319 318 318 320 321 321 321 319 319 319 318 318 317 317 318 318 318 318 316 315 314 312 312 313 312 312 312 310 309 310 310 309 308 308 308 307 307 308 308 306 306 307 307 306 306 306 305 305 305 305 305 305 305 306 305 305 305 305
320 320 320 320 320 319 319 319 319 319 320 321 320 319 319 319 319 319 318 319 319 319 319 318 317 316 314 313 313 313 313 312 311 309 310 310 309 308 309 309 308 308 308 308 307 306 306 307 307 306 306 305 305 305 305 304 304 304 304 304 304 304 304
323 323 321 321 320 320 320 319 319 319 319 319 319 319 319 319 319 319 319 319 319 318 319 319 318 317 316 314 313 313 313 313 312 310 309 310 310 309 309 309 308 308 308 307 307 306 306 307 306 306 305 305 305 305 304 303 303 302 302 302 302 302 303
323 323 323 322 321 321 320 320 320 319 319 318 318 318 318 318 318 318 317 316 315 315 316 317 318 318 317 316 314 314 313 313 313 311 310 310 310 309 309 308 308 307 307 307 306 306 306 306 305 305 305 304 303 302 301 300 300 300 300 301 301 301 301
318 319 320 319 319 319 319 319 319 319 319 319 318 317 317 317 317 317 316 313 313 313 314 315 316 317 318 317 316 314 313 313 313 312 311 310 310 309 309 308 308 307 306 306 306 305 305 305 305 304 303 300 298 297 297 298 298 298 298 298 297 297 297
315 316 316 316 316 317 318 317 317 317 318 318 318 318 317 317 316 316 316 314 314 315 316 315 316 316 318 318 317 316 314 314 313 312 311 311 310 309 309 308 307 307 306 305 305 305 305 305 304 302 298 295 293 293 294 295 296 296 296 295 295 296 296
314 314 316 317 316 315 315 315 314 316 316 316 316 316 315 315 316 316 316 316 316 316 317 317 316 317 318 319 317 316 315 314 313 312 311 311 310 309 308 307 307 305 305 305 304 304 304 304 303 300 298 296 295 294 295 295 295 296 296 295 296 296 297
313 314 315 315 314 313 315 315 315 315 315 314 314 315 314 314 314 315 316 316 316 316 317 318 318 317 319 319 318 317 316 314 313 312 312 311 310 309 308 307 306 305 304 304 303 303 303 302 301 300 299 298 298 298 298 297 297 296 296 296 296 297 297
311 312 311 311 311 312 313 314 314 315 316 316 316 316 316 316 314 314 316 316 316 316 317 318 318 318 318 319 319 317 316 314 313 312 312 312 311 309 308 307 306 305 304 303 303 303 302 302 302 301 299 299 299 299 298 298 297 297 297 296 296 297 297
309 309 309 309 309 309 310 310 311 313 315 316 316 316 315 316 316 316 317 318 319 319 319 319 319 319 319 319 318 317 315 314 313 313 312 312 311 309 308 307 305 304 303 303 303 303 303 302 302 301 300 300 299 299 298 298 297 297 297 297 296 297 297
309 308 309 309 308 308 309 309 309 311 312 314 314 314 314 314 315 316 317 317 319 320 320 320 320 320 320 319 318 316 314 314 313 312 311 310 309 307 306 305 304 303 303 303 303 303 303 302 301 301 300 300 300 299 298 298 297 297 297 297 297 296 297
308 308 308 308 308 308 308 308 308 309 311 313 314 313 313 313 314 315 315 315 316 317 318 318 318 318 318 318 316 314 313 313 312 310 308 307 306 305 304 304 304 303 303 303 303 303 302 302 301 301 300 300 299 298 297 297 297 296 296 296 296 296 297
308 307 307 308 307 307 308 308 308 309 310 311 313 313 313 312 313 315 315 315 315 316 316 316 316 314 314 314 313 311 311 310 308 307 307 306 305 304 304 304 304 303 303 302 302 302 302 301 301 300 300 299 298 298 297 297 296 296 296 296 296 297 297
308 307 307 307 307 307 307 307 307 308 309 310 311 312 312 312 313 315 316 316 316 316 316 315 312 311 310 311 310 308 308 307 305 305 305 304 304 304 304 303 303 303 302 302 301 301 301 301 301 300 299 298 298 298 297 297 297 296 297 297 297 297 297
308 308 307 307 307 307 307 307 306 307 307 308 309 310 312 313 313 313 314 315 316 316 315 313 311 309 309 309 308 307 306 305 303 303 303 303 303 303 303 303 302 302 302 301 302 301 301 301 300 299 298 298 297 297 297 297 297 297 296 296 296 296 296
308 308 308 307 307 307 307 307 307 307 307 307 308 310 312 313 313 313 313 314 314 314 314 313 310 309 308 307 308 307 305 303 302 302 302 302 302 302 302 302 302 302 301 301 301 301 300 299 298 297 297 296 296 296 296 295 295 295 295 295 294 294 294
306 307 307 307 307 308 308 308 308 307 307 307 307 309 311 312 312 313 313 313 313 313 313 312 310 308 306 305 306 305 304 302 301 301 300 300 299 299 300 301 301 300 300 300 299 299 298 297 296 296 296 295 294 294 294 293 293 293 292 292 292 292 291
305 306 306 307 308 308 308 308 307 306 306 307 308 310 311 311 312 312 312 312 312 311 311 311 309 306 304 304 304 303 302 301 300 300 300 299 298 297 297 298 298 298 298 297 297 296 296 296 296 295 294 294 293 293 292 292 292 292 291 291 291 291 291
304 305 305 306 307 307 308 308 307 306 306 308 309 311 311 311 311 310 309 309 310 310 309 309 308 305 302 302 302 301 300 299 298 299 299 298 297 297 297 297 297 297 296 296 296 296 296 295 294 294 293 293 293 292 292 291 291 291 291 291 291 291 291
304 304 304 304 304 305 305 307 308 308 308 309 310 311 310 310 309 308 307 306 307 307 307 306 304 302 300 299 299 299 298 297 296 296 296 296 296 296 296 297 297 296 297 297 296 295 294 294 293 293 293 293 292 292 292 292 292 292 292 292 292 292 292
304 303 303 303 303 303 304 305 307 308 309 310 311 310 309 308 307 305 304 304 304 305 304 302 300 299 298 298 297 297 295 294 293 293 293 294 294 294 296 297 296 296 296 296 295 294 293 293 293 293 293 293 293 292 292 292 292 292 292 292 292 292 292
Wind_Speed
22 22 24 22 19 18 17 16 16 15 14 13 12 11 12 12 13 13 11 11 13 13 14 15 14 13 13 11 10 9 9 7 6 6 8 8 8 7 6 4 2 3 4 3 3 2 1 1 3 4 6 6 7 8 9 10 10 10 10 10 9 8 8
24 25 25 21 19 19 19 17 16 15 13 12 11 10 10 11 14 16 14 13 12 10 11 13 13 12 12 12 12 12 13 13 10 9 10 9 8 7 6 5 3 2 2 2 2 2 2 1 2 4 6 7 8 10 10 9 9 8 8 9 9 8 8
27 26 24 21 21 21 21 18 16 15 14 13 12 11 11 10 12 15 15 15 13 10 10 10 10 10 11 11 11 11 13 15 14 14 15 14 13 11 9 8 7 5 4 4 4 4 1 1 2 3 6 9 9 11 12 11 10 9 9 9 9 8 9
28 26 25 24 23 24 21 18 17 16 15 14 13 13 12 11 11 13 15 15 13 13 13 12 12 11 11 11 10 9 10 12 13 13 13 13 13 13 12 11 11 10 8 7 7 8 6 3 2 3 8 12 10 11 14 13 10 9 10 10 9 9 8
27 27 27 27 27 26 22 20 19 17 15 14 13 12 12 12 12 13 14 14 13 14 14 14 13 12 12 11 10 9 9 9 9 9 9 9 10 11 11 10 10 9 9 8 7 7 7 6 5 3 7 10 8 11 16 13 10 10 10 11 11 12 12
28 28 27 28 28 26 23 22 21 19 17 15 13 13 13 12 12 13 14 13 13 13 12 11 11 12 11 11 11 11 11 11 9 8 9 8 8 9 9 8 7 6 7 7 6 6 6 6 8 6 6 8 6 9 14 14 12 11 11 12 13 13 9
30 28 28 29 27 26 25 24 21 19 18 16 15 13 13 13 11 10 11 11 12 12 11 10 10 11 11 11 12 11 11 11 10 10 10 9 9 8 7 6 5 4 5 5 4 5 4 5 7 6 6 7 6 7 10 12 12 12 12 15 17 18 16
31 28 28 29 27 27 27 24 21 19 17 17 16 14 13 13 11 9 9 9 11 12 11 10 10 10 10 10 10 9 9 10 10 10 10 10 10 9 7 5 5 5 4 4 2 3 3 4 5 6 6 5 4 6 7 8 10 9 11 14 15 17 20
31 29 29 30 28 28 27 23 21 19 18 18 17 15 14 13 11 9 8 8 9 11 11 11 11 9 8 8 8 9 9 8 8 9 9 10 10 9 7 5 5 6 4 3 3 3 3 3 4 5 7 7 4 3 4 6 7 5 9 14 13 13 18
30 29 29 31 28 27 27 23 21 20 20 20 18 16 15 14 11 8 8 8 7 9 10 10 9 7 6 7 8 8 8 7 5 6 7 7 7 8 7 4 3 5 5 5 6 7 6 5 5 5 6 7 5 3 2 4 4 4 9 16 13 12 17
28 28 29 30 28 27 27 24 22 22 22 22 20 18 17 15 12 9 9 9 8 9 10 9 8 7 6 6 7 6 6 6 5 4 4 4 4 5 6 5 2 3 5 6 7 8 8 7 5 4 3 4 5 4 2 2 4 4 11 18 16 16 21
26 27 28 28 26 26 26 24 24 24 24 23 22 19 18 15 13 11 10 10 9 10 11 10 8 8 8 7 6 7 6 5 5 4 4 3 1 2 4 5 3 1 3 3 3 4 6 6 6 5 3 2 2 3 3 2 2 4 11 18 20 21 23
24 25 26 27 26 25 25 23 24 25 25 25 23 20 18 15 13 12 11 10 10 10 11 11 10 9 10 8 8 9 7 6 7 7 5 4 4 1 2 4 3 1 2 1 0 1 2 3 4 5 4 2 1 2 4 4 4 8 14 17 19 21 22
22 20 24 28 25 24 25 23 23 24 25 26 24 21 18 16 13 12 12 12 11 11 12 12 11 11 11 10 10 10 9 8 9 9 7 5 5 4 2 2 3 3 3 1 1 1 3 5 6 7 7 6 4 3 5 6 6 9 15 17 18 20 19
17 16 22 28 24 23 23 21 20 23 25 26 25 21 19 16 14 13 13 13 12 11 12 13 13 13 12 11 11 12 11 11 12 11 10 8 8 7 5 5 5 6 5 3 3 2 3 3 3 5 5 4 4 4 5 8 10 10 14 17 17 17 17
14 13 19 24 22 21 20 17 17 22 26 27 25 21 19 18 16 15 14 14 14 14 14 14 15 14 14 14 14 14 14 13 13 13 13 12 11 10 9 7 6 6 6 5 5 3 3 4 4 5 5 2 3 6 6 8 10 10 12 14 15 16 18
16 14 17 20 20 19 18 16 17 20 25 27 25 22 21 20 19 17 16 14 13 15 16 17 17 17 17 17 17 16 16 16 14 14 15 15 13 12 13 11 7 7 8 8 6 4 4 6 6 6 6 5 4 6 7 9 10 11 11 14 16 17 18
18 16 16 18 19 18 18 18 17 18 22 25 25 22 19 18 17 15 14 12 11 11 13 17 19 20 19 19 20 19 19 19 17 15 15 16 14 13 15 13 9 9 10 10 7 6 6 7 7 6 6 7 7 8 9 10 11 12 13 16 19 20 19
18 18 17 17 18 18 18 17 17 16 17 20 21 19 17 16 15 13 10 8 8 10 12 15 18 22 23 22 21 21 21 21 19 17 17 17 14 13 14 13 10 10 11 10 9 8 8 9 8 8 9 8 9 10 10 10 11 12 14 16 18 20 21
10 12 15 16 15 14 13 13 14 13 12 14 14 14 14 13 14 14 10 9 12 16 19 19 19 22 25 25 24 23 24 23 21 19 19 18 16 14 14 13 12 10 10 10 10 10 10 10 9 9 9 9 10 11 11 11 12 12 13 15 17 19 20
11 8 6 9 10 9 8 7 8 9 10 11 12 13 13 14 16 18 17 16 17 21 25 26 25 25 26 27 28 27 26 25 23 21 21 19 17 16 15 13 12 11 11 11 12 12 12 11 10 9 9 11 12 12 12 12 12 12 13 16 18 19 21
7 3 2 3 6 7 6 4 3 6 9 10 12 13 14 15 17 19 20 20 22 25 27 28 28 28 27 28 31 30 29 28 25 23 21 19 18 17 14 13 13 12 12 13 13 13 13 12 11 11 12 13 12 11 11 11 11 12 13 16 18 19 20
12 12 9 6 7 7 4 3 3 5 7 7 9 11 12 13 15 17 19 22 23 25 26 27 27 27 28 30 32 32 30 29 27 25 22 20 19 17 14 14 13 13 13 13 14 14 14 13 13 14 14 12 11 10 9 10 10 11 13 14 15 16 17
13 14 12 9 9 8 6 4 4 6 7 8 10 12 14 16 16 16 18 20 21 23 26 28 28 28 28 29 31 32 32 30 28 26 24 23 21 19 17 16 14 13 14 15 16 15 14 14 15 15 12 10 9 8 7 8 10 11 12 13 14 15 16
13 14 12 10 9 8 7 6 5 7 9 11 12 12 15 17 17 18 19 19 21 23 26 28 28 27 27 28 30 32 32 30 28 27 25 24 23 21 19 17 16 15 16 16 17 17 16 16 16 15 13 10 9 8 8 9 10 11 12 14 16 18 18
14 13 10 9 7 7 6 5 3 4 5 6 8 9 9 10 11 11 12 14 17 20 23 26 25 24 24 26 27 27 28 29 30 29 26 24 23 21 19 17 16 16 15 14 16 17 16 16 16 15 14 12 11 10 9 10 10 11 13 16 19 21 22
14 11 8 7 5 5 4 2 1 2 2 2 3 4 4 5 7 6 6 7 8 10 15 18 20 21 22 21 19 21 24 26 27 25 23 23 22 19 17 17 17 15 12 12 14 16 16 16 15 14 14 13 12 11 10 11 12 12 14 16 19 23 24
10 8 7 6 5 5 4 2 2 1 2 3 4 5 5 6 7 8 10 9 6 8 11 13 15 17 18 16 15 19 23 24 23 21 19 17 17 16 15 16 15 13 10 9 11 12 14 14 15 15 14 13 12 12 12 13 14 15 17 19 20 23 24
7 6 6 6 6 4 4 3 3 2 2 3 5 6 7 8 8 9 11 11 9 9 10 11 11 9 8 10 13 17 19 19 18 17 15 13 13 14 13 12 11 10 10 10 11 11 12 13 15 15 14 13 13 14 15 17 17 18 19 19 19 21 21
8 8 7 7 5 4 4 4 3 4 4 4 5 7 8 9 8 8 9 9 9 7 7 7 7 5 7 11 13 14 13 13 11 11 11 10 9 9 8 10 11 11 11 12 13 14 15 16 16 15 14 14 15 16 17 18 17 16 16 17 17 18 18
10 9 8 7 5 4 5 5 4 5 5 6 7 8 10 10 9 8 8 9 8 6 5 6 7 8 9 11 12 11 10 10 9 8 8 6 4 6 8 11 12 12 13 13 14 15 16 16 15 14 13 14 14 15 16 15 15 16 17 18 20 21 22
9 9 7 7 6 6 6 6 6 6 6 7 8 9 10 12 10 9 10 10 8 6 6 8 9 10 10 11 12 12 11 9 8 7 6 4 3 5 9 12 13 13 13 13 14 14 14 13 12 11 11 12 14 15 16 17 18 20 21 23 24 25 26
4 7 10 11 10 10 8 7 7 7 8 9 10 9 11 13 12 12 12 11 9 7 7 8 10 12 12 11 11 11 11 10 9 8 7 6 4 2 4 7 8 8 8 10 11 10 9 9 9 10 12 14 16 17 18 19 20 21 22 23 23 24 25
6 7 10 12 12 12 11 10 9 9 10 11 11 8 10 13 13 13 12 10 9 8 7 8 11 12 12 11 11 10 9 10 10 8 8 7 6 4 1 2 3 3 4 6 6 5 7 10 12 14 15 16 16 16 17 17 18 18 19 20 21 22 22
9 7 6 7 8 9 10 10 10 10 11 12 9 8 13 15 15 14 12 10 10 9 9 10 12 13 12 11 11 10 9 9 8 7 7 6 4 5 3 3 4 2 2 3 5 8 11 13 14 14 14 13 13 14 14 15 16 18 19 21 22 22 21
11 11 10 10 10 10 10 11 11 12 12 11 9 13 15 15 15 14 14 12 11 10 11 12 13 13 12 11 11 11 10 9 7 5 5 5 2 2 2 2 2 3 5 7 10 12 12 12 12 11 10 11 12 12 13 15 17 19 21 22 22 22 22
15 15 15 15 16 15 15 14 15 14 13 11 12 15 16 15 15 15 15 15 13 12 13 14 13 12 12 12 11 10 9 7 5 4 3 3 3 3 4 4 6 8 10 12 13 12 10 9 8 8 8 10 11 12 14 16 18 20 21 22 22 22 22
Wind_Direction
146 139 138 135 129 127 122 115 111 106 103 105 104 99 98 93 87 95 106 106 106 104 100 103 111 115 109 110 120 114 101 115 155 162 158 169 169 171 190 197 213 233 228 213 213 210 163 305 317 322 324 317 309 307 305 302 292 278 273 278 284 282 274
146 141 140 135 129 128 125 122 119 116 111 108 108 105 104 97 85 89 97 99 103 107 104 105 108 110 109 108 111 108 101 105 116 119 115 122 128 130 150 159 152 160 157 164 229 255 223 243 296 300 324 331 323 328 333 324 314 304 286 274 272 279 284
144 142 141 137 134 132 130 129 126 122 119 114 113 111 109 106 95 89 90 90 92 96 100 106 110 108 104 104 108 109 105 106 112 114 109 106 106 106 116 127 123 109 99 81 45 23 348 275 293 309 340 343 326 330 342 340 329 322 308 282 260 272 297
148 145 145 145 144 141 138 136 133 130 127 122 120 117 112 112 108 99 93 93 91 88 88 95 100 102 103 104 109 117 116 112 114 116 114 108 105 103 104 106 102 97 90 71 52 44 44 36 360 332 343 346 339 336 340 337 329 322 312 296 270 267 284
155 152 151 153 150 146 143 141 140 138 134 130 127 124 120 118 116 113 109 106 103 99 96 98 101 104 108 111 113 117 120 122 125 126 122 117 114 107 102 102 101 97 89 78 66 54 50 47 48 28 353 355 348 337 342 345 338 328 323 319 312 304 291
162 158 156 157 154 152 150 148 149 146 143 141 137 132 128 124 122 123 124 120 116 114 111 112 116 117 116 116 115 110 109 116 122 126 123 122 125 118 108 106 105 102 95 85 73 66 63 56 52 40 3 5 353 332 343 352 353 353 3 13 15 9 349
166 163 160 161 159 157 156 156 156 155 152 152 148 142 133 130 130 128 131 133 130 126 120 118 122 121 117 114 111 105 102 108 111 112 114 118 126 127 121 111 102 107 110 102 82 68 62 50 48 37 6 4 352 339 344 349 1 15 27 34 40 40 36
171 165 163 167 165 161 162 163 163 162 160 160 156 149 139 139 143 137 135 137 136 135 131 128 129 126 120 115 113 110 103 101 102 103 106 112 123 127 119 105 96 103 121 124 99 59 59 57 50 37 22 19 357 342 339 342 359 18 25 27 30 30 28
173 168 167 171 169 166 166 167 169 168 165 163 160 151 146 151 155 149 144 139 138 141 139 136 134 132 134 130 125 119 110 104 100 101 103 107 120 124 113 97 80 74 81 92 54 30 60 78 66 44 20 22 25 348 332 339 349 353 8 13 12 10 15
176 173 171 173 172 170 170 169 171 172 168 166 162 155 154 161 165 162 158 152 148 144 142 147 147 143 148 144 135 124 119 124 115 102 102 101 110 117 111 101 68 45 38 56 52 45 63 78 75 59 19 14 25 20 350 336 331 306 340 358 1 351 352
179 177 175 175 173 172 171 170 171 173 173 170 165 160 161 169 174 174 173 168 165 155 149 159 165 162 166 156 146 146 145 151 145 122 121 114 106 113 118 121 104 16 24 51 55 47 55 63 60 51 24 10 16 24 28 321 314 309 331 343 346 339 336
180 180 179 177 176 174 173 171 172 174 174 172 168 165 166 172 178 180 182 179 175 168 164 173 181 176 183 182 170 176 182 179 171 158 170 191 170 120 129 138 142 348 4 34 36 29 37 42 37 30 36 42 11 352 340 321 289 301 326 333 330 328 330
183 183 182 180 179 179 176 172 172 175 176 174 172 170 170 173 177 182 189 191 189 182 177 183 191 187 190 197 192 193 199 196 195 196 202 222 232 224 130 147 164 316 339 359 21 10 1 352 344 347 357 11 17 308 302 297 263 286 310 320 320 324 331
180 181 183 181 177 178 179 177 174 175 176 177 176 174 173 176 179 183 191 198 202 197 191 192 198 199 199 201 199 205 212 205 203 212 220 226 227 233 260 226 232 286 307 304 186 224 287 298 291 302 308 299 296 295 287 285 276 288 304 310 315 322 331
166 165 175 180 173 167 172 174 175 177 176 176 178 177 176 178 184 187 193 202 207 207 206 205 206 206 206 206 206 211 215 209 209 219 223 220 221 230 242 242 247 263 272 292 303 271 289 307 295 313 323 299 293 312 309 298 292 288 296 307 317 323 327
170 159 165 173 168 162 161 156 160 171 172 172 173 175 178 182 186 189 194 202 208 212 213 212 214 215 212 213 216 217 216 213 212 219 222 217 219 230 236 235 241 244 245 271 295 287 304 323 313 316 328 330 319 326 330 319 312 306 302 308 319 323 324
186 175 166 168 170 170 166 155 150 156 165 170 171 171 176 180 183 186 192 199 209 218 221 220 219 219 218 220 222 221 219 218 218 221 224 220 219 228 233 231 229 230 238 258 274 274 286 296 293 290 294 299 303 309 316 320 323 326 321 318 319 319 321
184 181 177 174 175 176 172 167 159 152 159 167 170 171 173 175 177 179 184 189 197 215 229 231 227 225 224 224 225 224 222 223 224 224 225 225 224 230 232 226 217 220 234 247 251 252 263 269 269 270 279 290 292 292 299 307 315 321 324 324 322 320 319
176 176 176 174 175 175 170 169 169 162 161 164 169 174 177 180 183 180 177 191 216 237 244 243 240 236 230 226 225 226 226 227 227 226 226 227 229 232 225 212 206 215 227 233 232 238 250 254 257 267 277 286 289 289 294 302 309 313 317 320 320 320 320
134 151 160 163 168 173 173 176 180 180 179 175 174 177 182 193 200 203 217 249 259 260 258 256 255 251 241 232 227 226 227 227 227 226 225 225 226 226 217 205 206 215 220 224 229 236 245 251 258 264 270 278 286 292 296 301 307 310 315 318 317 318 318
79 66 106 142 154 166 180 191 201 211 215 210 205 202 209 226 228 227 241 249 244 250 257 257 257 257 252 241 231 228 226 225 225 223 222 223 223 222 220 221 223 223 224 231 237 242 247 250 251 255 270 283 289 292 295 301 307 311 315 317 315 316 318
130 93 65 113 120 131 153 167 197 235 239 229 225 224 231 244 243 239 244 244 241 248 255 255 254 257 257 249 237 229 225 223 222 220 218 218 219 219 221 226 226 226 232 239 244 248 250 248 251 265 283 290 289 291 294 298 306 312 316 317 315 317 319
154 161 163 151 126 124 145 171 196 230 242 239 240 242 241 243 244 243 244 246 249 253 254 256 258 259 259 253 241 229 224 223 220 216 214 212 211 212 212 211 215 224 237 244 248 250 251 254 264 277 285 287 286 291 295 300 309 317 318 316 316 317 317
148 154 152 149 147 154 171 179 190 217 237 244 246 247 243 241 242 243 243 245 251 256 258 259 259 258 255 251 242 232 224 221 217 213 212 211 207 204 206 209 216 228 240 246 250 251 255 265 276 282 286 289 287 287 292 299 309 315 312 309 308 309 307
143 141 137 136 139 147 157 164 182 209 227 234 235 237 239 241 245 248 248 250 255 261 263 261 260 259 256 251 244 234 224 218 213 211 211 210 206 204 210 217 224 232 239 243 246 250 258 269 277 281 285 287 281 276 281 290 297 303 303 301 299 297 296
138 134 133 138 139 144 155 167 189 204 212 218 222 227 231 237 241 242 245 251 258 265 266 265 265 266 261 253 242 230 222 217 213 211 210 208 206 206 212 217 219 225 232 238 245 252 259 264 270 275 278 279 275 272 277 284 291 295 296 296 293 293 296
130 129 132 145 162 173 178 185 207 221 239 238 229 236 248 253 246 236 245 261 266 270 269 267 268 267 262 254 239 223 217 214 209 206 203 200 198 202 206 206 209 216 226 239 250 253 255 258 263 269 270 268 265 265 272 282 290 292 293 295 294 295 299
128 130 137 149 167 180 189 201 204 228 269 268 262 264 270 280 276 262 261 270 278 282 281 278 276 273 268 259 236 214 208 205 199 193 189 188 191 196 197 198 206 215 224 241 253 251 250 255 259 259 256 253 255 262 272 282 288 290 290 293 295 297 300
141 143 152 169 183 187 183 189 203 228 251 255 260 260 260 274 281 261 249 250 258 272 284 288 284 276 256 228 203 191 188 186 183 182 185 191 198 198 199 208 225 236 239 247 259 261 260 261 259 255 253 254 261 268 275 281 285 288 289 289 291 295 298
167 172 180 186 195 207 209 210 226 238 245 257 262 255 251 255 256 242 235 238 238 243 262 275 270 240 201 185 175 170 172 168 161 166 177 188 203 214 230 242 249 254 251 253 261 264 264 263 259 257 260 264 270 274 278 282 283 282 281 278 279 284 287
182 188 194 197 210 231 233 238 250 251 257 270 272 258 242 233 226 225 235 237 225 213 217 226 227 217 204 193 182 174 172 165 154 157 167 178 212 238 240 238 240 248 254 258 260 255 251 249 247 251 259 267 273 276 279 282 280 276 274 273 274 276 277
187 188 196 211 228 234 234 242 255 265 268 274 283 269 235 219 213 215 228 230 213 196 198 206 215 218 213 211 207 200 191 177 163 157 159 158 176 212 228 235 243 254 260 257 252 245 241 241 245 254 266 278 286 288 288 290 290 289 289 288 288 287 286
210 222 234 237 232 228 231 237 249 264 270 278 292 279 231 211 205 204 210 212 203 196 200 204 211 216 214 213 213 207 199 189 177 167 155 136 119 153 236 248 255 259 253 243 239 240 245 255 267 278 288 296 299 300 299 298 298 299 300 300 301 302 302
296 279 255 239 227 222 222 228 242 260 272 283 290 267 214 199 194 191 192 194 190 189 196 202 207 210 209 210 209 203 196 189 184 179 166 139 97 65 63 215 221 222 219 226 241 263 284 294 297 300 302 304 307 310 310 309 310 310 308 307 307 307 308
290 299 282 249 235 225 220 226 240 254 270 281 270 214 189 184 181 176 174 175 179 180 186 199 206 204 202 207 210 206 203 199 196 195 185 165 106 52 59 144 165 179 227 269 296 307 309 309 310 312 315 318 322 325 323 318 315 310 306 305 305 304 303
288 295 296 291 284 273 258 249 242 242 255 261 224 185 177 175 171 168 164 164 170 179 184 191 198 198 197 200 201 201 204 209 214 221 219 213 227 360 25 149 184 285 293 298 310 315 315 317 321 327 329 331 333 331 323 315 310 306 304 303 301 297 294
283 286 288 286 283 279 270 260 247 237 237 227 195 178 173 172 170 164 161 161 167 175 179 181 186 192 194 194 195 198 202 208 218 223 223 227 239 258 270 273 284 295 299 305 312 309 304 310 319 322 322 323 325 324 319 315 313 311 307 302 297 291 288